Flag for Sierra Leone Weather past 2 weeks in Freetown, Sierra Leone

Now
77 °F

Thunderstorms. Passing clouds.


Feels Like: 78 °F
Forecast: N/A
Wind: 7 mph from Northeast

Location: Lungi

Current Time: Jul 28, 2014 at 11:47:46 PM

Latest Report: Jul 28, 2014 at 10:00 PM


Visibility: N/A

Pressure: 29.92 "Hg

Humidity: 89%

Dew point: 73 °F

Location of FreetownLocation

Historic Weather in Freetown — Graph

°F

Freetown temperature yesterday

Maximum temperature yesterday: 84 °F (at 1:00 PM)
Minimum temperature yesterday: 72 °F (at 10:00 PM)
Average temperature yesterday: 78 °F

Past Weeks' High & Low Weather Summary

 TemperatureHumidityPressure
High86 °F (Jul 19, 5:00 PM)100% (Jul 14, 3:00 AM)30.04 "Hg (Jul 14, 3:00 AM)
Low70 °F (Jul 28, 12:00 AM)70% (Jul 14, 4:00 PM)29.83 "Hg (Jul 27, 6:00 PM)
Average79 °F87%29.95 "Hg
* Reported Jul 13 10:00 PM — Jul 28 10:00 PM, Freetown, Weather by CustomWeather, © 2014

Note: Actual official high and low records may vary slightly from our data, if they occured in-between our weather recording intervals... More about our weather records

Advertising

Freetown weather history for previous 24 hours

 ConditionsComfort  
Time TempWeatherWind HumidityBarometerVisibility
10:00 PM
Jul 28
77 °FThunderstorms. Passing clouds.7 mph89%29.92 "HgN/A
7:00 PM75 °FThunderstorms. Partly sunny.15 mph94%29.89 "HgN/A
6:00 PM75 °FPartly sunny.3 mph100%29.89 "Hg5 mi
3:00 PM84 °FScattered clouds.7 mph74%29.86 "HgN/A
2:00 PM84 °FScattered clouds.6 mph74%29.86 "HgN/A
12:00 PM82 °FScattered clouds.9 mph79%29.92 "HgN/A
11:30 AM79 °FScattered clouds.5 mph89%29.92 "HgN/A
11:00 AM79 °FScattered clouds.7 mph89%29.92 "HgN/A
10:30 AM79 °FScattered clouds.6 mph84%29.92 "HgN/A
10:00 AM79 °FPartly sunny.9 mph84%29.92 "HgN/A
9:30 AM77 °FPartly sunny.6 mph89%29.92 "HgN/A
9:00 AM77 °FPartly sunny.7 mph89%29.89 "HgN/A
8:30 AM75 °FPartly sunny.5 mph89%29.89 "HgN/A
8:00 AM75 °FPartly sunny.7 mph89%29.89 "HgN/A
7:00 AM73 °FPartly sunny.5 mph94%29.86 "HgN/A
6:00 AM73 °FPassing clouds.3 mph94%29.86 "HgN/A
3:00 AM73 °FPassing clouds.3 mph94%29.86 "HgN/A
12:00 AM70 °FThunderstorms. Passing clouds.3 mph100%29.89 "Hg5 mi
Weather by CustomWeather, © 2014

See weather overviewHow to use our weather pages